Retour au catalogue

INTELSAT 33E DEB

ActifMEO
NORAD 64408·DEBRIS· XX

Lancé Aug 24, 2016 depuis Guiana Space Centre

Loading…

Prochains Passages (prochaines 24 heures)

TLE

FraisSource: Space-Track

Époque: Sep 13, 2026, 17:28 UTC

1 64408U 16053AN  26256.72846442 -.00000062  00000-0  00000-0 0  9994
2 64408   3.1600  85.2169 0760725   1.6991 358.9341  1.03213769  6997

Suivez INTELSAT 33E DEB en temps réel avec AllMySat

Download on the App Store